| time (UTC) | temp C | wind direction | speed KPH | gust KPH | rain 1hr cm | rain 24hr cm | rain mn cm | humidity % | barometer mb |
| 20260509055604 | 11 | 18 | 3.2 | 8.0 | 0.00 | 0.00 | 0.00 | 92 | 1019.9 |
| 20260509055105 | 10 | 44 | 3.2 | 6.4 | 0.00 | 0.00 | 0.00 | 93 | 1019.9 |
| 20260509054602 | 10 | 65 | 3.2 | 6.4 | 0.00 | 0.00 | 0.00 | 94 | 1019.8 |
| 20260509054104 | 10 | 60 | 3.2 | 6.4 | 0.00 | 0.00 | 0.00 | 94 | 1019.8 |
| 20260509053603 | 10 | 28 | 3.2 | 6.4 | 0.00 | 0.00 | 0.00 | 94 | 1019.9 |
| 20260509053104 | 9 | 30 | 3.2 | 6.4 | 0.00 | 0.00 | 0.00 | 94 | 1019.8 |
| 20260509052634 | 9 | 7 | 4.8 | 6.4 | 0.00 | 0.00 | 0.00 | 94 | 1019.7 |
| 20260509051644 | 8 | 0 | 3.2 | 6.4 | 0.00 | 0.00 | 0.00 | 94 | 1019.7 |
| 20260509050630 | 8 | 45 | 3.2 | 8.0 | 0.00 | 0.00 | 0.00 | 93 | 1019.7 |
| 20260509045606 | 8 | 9 | 1.6 | 4.8 | 0.00 | 0.00 | 0.00 | 93 | 1019.7 |
| 20260509045103 | 8 | 9 | 1.6 | 4.8 | 0.00 | 0.00 | 0.00 | 93 | 1019.6 |
| 20260509044606 | 8 | 9 | 1.6 | 4.8 | 0.00 | 0.00 | 0.00 | 92 | 1019.6 |
| 20260509044059 | 8 | 9 | 3.2 | 4.8 | 0.00 | 0.00 | 0.00 | 92 | 1019.6 |
| 20260509043559 | 8 | 9 | 3.2 | 4.8 | 0.00 | 0.00 | 0.00 | 92 | 1019.6 |
| 20260509043126 | 8 | 9 | 3.2 | 6.4 | 0.00 | 0.00 | 0.00 | 92 | 1019.5 |
| 20260509042059 | 8 | 29 | 3.2 | 4.8 | 0.00 | 0.00 | 0.00 | 92 | 1019.6 |
| 20260509041602 | 8 | 29 | 3.2 | 4.8 | 0.00 | 0.00 | 0.00 | 92 | 1019.4 |
| 20260509041059 | 8 | 29 | 3.2 | 4.8 | 0.00 | 0.00 | 0.00 | 92 | 1019.5 |
| 20260509040556 | 8 | 33 | 1.6 | 4.8 | 0.00 | 0.00 | 0.00 | 91 | 1019.5 |
| 20260509040055 | 8 | 39 | 1.6 | 3.2 | 0.00 | 0.00 | 0.00 | 91 | 1019.5 |
| 20260509035554 | 8 | 39 | 1.6 | 4.8 | 0.00 | 0.00 | 0.00 | 91 | 1019.4 |
| 20260509035056 | 8 | 39 | 1.6 | 4.8 | 0.00 | 0.00 | 0.00 | 91 | 1019.4 |
| 20260509034632 | 8 | 35 | 3.2 | 4.8 | 0.00 | 0.00 | 0.00 | 91 | 1019.4 |
| 20260509033553 | 8 | 37 | 3.2 | 4.8 | 0.00 | 0.00 | 0.00 | 91 | 1019.4 |
| 20260509033051 | 8 | 48 | 3.2 | 4.8 | 0.00 | 0.00 | 0.00 | 90 | 1019.4 |
| 20260509032555 | 8 | 60 | 3.2 | 4.8 | 0.00 | 0.00 | 0.00 | 90 | 1019.5 |
| 20260509032051 | 9 | 60 | 3.2 | 6.4 | 0.00 | 0.00 | 0.00 | 90 | 1019.5 |
| 20260509031550 | 9 | 60 | 3.2 | 6.4 | 0.00 | 0.00 | 0.00 | 90 | 1019.5 |
| 20260509031057 | 9 | 48 | 3.2 | 6.4 | 0.00 | 0.00 | 0.00 | 91 | 1019.5 |
| 20260509030633 | 9 | 59 | 4.8 | 6.4 | 0.00 | 0.00 | 0.00 | 91 | 1019.6 |
| 20260509025558 | 9 | 51 | 6.4 | 9.7 | 0.00 | 0.00 | 0.00 | 91 | 1019.6 |
| 20260509025233 | 9 | 52 | 4.8 | 9.7 | 0.00 | 0.00 | 0.00 | 91 | 1019.6 |
| 20260509023548 | 8 | 68 | 4.8 | 6.4 | 0.00 | 0.00 | 0.00 | 91 | 1019.6 |
| 20260509023105 | 8 | 70 | 3.2 | 6.4 | 0.00 | 0.00 | 0.00 | 90 | 1019.6 |
| 20260509022714 | 8 | 48 | 3.2 | 6.4 | 0.00 | 0.00 | 0.00 | 90 | 1019.6 |
| 20260509020543 | 8 | 60 | 3.2 | 4.8 | 0.00 | 0.00 | 0.00 | 89 | 1019.7 |
| 20260509020039 | 8 | 60 | 3.2 | 4.8 | 0.00 | 0.00 | 0.00 | 88 | 1019.6 |
| 20260509015539 | 8 | 101 | 1.6 | 3.2 | 0.00 | 0.00 | 0.00 | 88 | 1019.6 |
| 20260509015039 | 8 | 102 | 1.6 | 3.2 | 0.00 | 0.00 | 0.00 | 88 | 1019.6 |
| 20260509014534 | 8 | 102 | 0.0 | 1.6 | 0.00 | 0.00 | 0.00 | 88 | 1019.6 |
| 20260509014034 | 9 | 102 | 0.0 | 1.6 | 0.00 | 0.00 | 0.00 | 87 | 1019.6 |
| 20260509013534 | 9 | 101 | 0.0 | 0.0 | 0.00 | 0.00 | 0.00 | 88 | 1019.6 |
| 20260509013031 | 9 | 101 | 0.0 | 1.6 | 0.00 | 0.00 | 0.00 | 87 | 1019.6 |
| 20260509012531 | 9 | 101 | 0.0 | 1.6 | 0.00 | 0.00 | 0.00 | 87 | 1019.7 |
| 20260509012032 | 9 | 102 | 1.6 | 3.2 | 0.00 | 0.00 | 0.00 | 87 | 1019.6 |
| 20260509011529 | 10 | 102 | 1.6 | 3.2 | 0.00 | 0.00 | 0.00 | 87 | 1019.7 |
| 20260509011029 | 10 | 102 | 1.6 | 4.8 | 0.00 | 0.00 | 0.00 | 87 | 1019.7 |
| 20260509010530 | 10 | 89 | 1.6 | 4.8 | 0.00 | 0.00 | 0.00 | 87 | 1019.7 |
| 20260509010027 | 10 | 98 | 3.2 | 4.8 | 0.00 | 0.00 | 0.00 | 87 | 1019.7 |
| 20260509005531 | 10 | 83 | 4.8 | 9.7 | 0.00 | 0.00 | 0.00 | 87 | 1019.7 |
| 20260509005027 | 10 | 87 | 6.4 | 9.7 | 0.00 | 0.00 | 0.00 | 87 | 1019.7 |
| 20260509004527 | 10 | 74 | 4.8 | 9.7 | 0.00 | 0.00 | 0.00 | 87 | 1019.6 |
| 20260509004027 | 10 | 75 | 3.2 | 9.7 | 0.00 | 0.00 | 0.00 | 87 | 1019.6 |
| 20260509003526 | 10 | 83 | 3.2 | 6.4 | 0.00 | 0.00 | 0.00 | 87 | 1019.6 |
| 20260509003033 | 10 | 91 | 3.2 | 9.7 | 0.00 | 0.00 | 0.00 | 87 | 1019.7 |
| 20260509002526 | 10 | 82 | 4.8 | 9.7 | 0.00 | 0.00 | 0.00 | 86 | 1019.7 |
| 20260509002027 | 10 | 79 | 4.8 | 9.7 | 0.00 | 0.00 | 0.00 | 86 | 1019.7 |
| 20260509001528 | 10 | 75 | 4.8 | 9.7 | 0.00 | 0.00 | 0.00 | 86 | 1019.7 |
| 20260509001030 | 10 | 73 | 4.8 | 9.7 | 0.00 | 0.00 | 0.00 | 86 | 1019.7 |
| 20260509000525 | 10 | 73 | 4.8 | 11.3 | 0.00 | 0.00 | 0.00 | 85 | 1019.8 |
| 20260509000029 | 10 | 81 | 4.8 | 11.3 | 0.00 | 0.00 | 0.00 | 85 | 1019.7 |
| 20260508235526 | 10 | 77 | 6.4 | 11.3 | 0.00 | 0.00 | 0.00 | 85 | 1019.8 |
| 20260508235029 | 10 | 82 | 6.4 | 11.3 | 0.00 | 0.00 | 0.00 | 84 | 1019.7 |
| 20260508234526 | 10 | 66 | 6.4 | 11.3 | 0.00 | 0.00 | 0.00 | 85 | 1019.8 |
| 20260508234028 | 10 | 72 | 8.0 | 11.3 | 0.00 | 0.00 | 0.00 | 85 | 1019.7 |
| 20260508233526 | 10 | 71 | 8.0 | 11.3 | 0.00 | 0.00 | 0.00 | 85 | 1019.8 |
| 20260508233025 | 10 | 54 | 8.0 | 11.3 | 0.00 | 0.00 | 0.00 | 86 | 1019.7 |
| 20260508232525 | 10 | 58 | 6.4 | 11.3 | 0.00 | 0.00 | 0.00 | 86 | 1019.8 |
| 20260508232025 | 10 | 56 | 4.8 | 9.7 | 0.00 | 0.00 | 0.00 | 87 | 1019.7 |
| 20260508231524 | 10 | 72 | 3.2 | 9.7 | 0.00 | 0.00 | 0.00 | 86 | 1019.7 |
| 20260508231116 | 10 | 63 | 3.2 | 6.4 | 0.00 | 0.00 | 0.00 | 85 | 1019.6 |
| 20260508225519 | 10 | 0 | 1.6 | 3.2 | 0.00 | 0.00 | 0.00 | 84 | 1019.7 |
| 20260508225017 | 10 | 0 | 1.6 | 3.2 | 0.00 | 0.00 | 0.00 | 84 | 1019.6 |
| 20260508224517 | 10 | 0 | 1.6 | 3.2 | 0.00 | 0.00 | 0.00 | 82 | 1019.7 |
| 20260508224016 | 10 | 0 | 1.6 | 3.2 | 0.00 | 0.00 | 0.00 | 82 | 1019.6 |
| 20260508223514 | 10 | 0 | 1.6 | 4.8 | 0.00 | 0.00 | 0.00 | 82 | 1019.7 |
| 20260508223013 | 10 | 0 | 1.6 | 4.8 | 0.00 | 0.00 | 0.00 | 81 | 1019.7 |
| 20260508222512 | 11 | 0 | 1.6 | 4.8 | 0.00 | 0.00 | 0.00 | 80 | 1019.8 |
| 20260508222014 | 11 | 0 | 0.0 | 3.2 | 0.00 | 0.00 | 0.00 | 80 | 1019.8 |
| 20260508221513 | 11 | 0 | 1.6 | 3.2 | 0.00 | 0.00 | 0.00 | 80 | 1019.7 |
| 20260508221056 | 11 | 0 | 1.6 | 4.8 | 0.00 | 0.00 | 0.00 | 80 | 1019.8 |
| 20260508215510 | 11 | 354 | 3.2 | 6.4 | 0.00 | 0.00 | 0.00 | 79 | 1019.7 |
| 20260508215009 | 11 | 15 | 1.6 | 6.4 | 0.00 | 0.00 | 0.00 | 79 | 1019.7 |
| 20260508214507 | 11 | 16 | 1.6 | 6.4 | 0.00 | 0.00 | 0.00 | 78 | 1019.7 |
| 20260508214034 | 12 | 35 | 3.2 | 6.4 | 0.00 | 0.00 | 0.00 | 77 | 1019.8 |
| 20260508213008 | 12 | 29 | 1.6 | 3.2 | 0.00 | 0.00 | 0.00 | 76 | 1019.8 |
| 20260508212528 | 12 | 29 | 1.6 | 3.2 | 0.00 | 0.00 | 0.00 | 76 | 1019.9 |
| 20260508211505 | 12 | 10 | 1.6 | 4.8 | 0.00 | 0.00 | 0.00 | 75 | 1019.9 |
| 20260508211031 | 12 | 2 | 1.6 | 6.4 | 0.00 | 0.00 | 0.00 | 75 | 1019.8 |
| 20260508210007 | 12 | 13 | 1.6 | 6.4 | 0.00 | 0.00 | 0.00 | 74 | 1019.7 |
| 20260508205504 | 12 | 16 | 3.2 | 6.4 | 0.00 | 0.00 | 0.00 | 74 | 1019.6 |
| 20260508205005 | 13 | 2 | 3.2 | 6.4 | 0.00 | 0.00 | 0.00 | 74 | 1019.6 |
| 20260508204503 | 13 | 10 | 3.2 | 6.4 | 0.00 | 0.00 | 0.00 | 74 | 1019.7 |
| 20260508204005 | 13 | 44 | 1.6 | 3.2 | 0.00 | 0.00 | 0.00 | 74 | 1019.6 |
| 20260508203504 | 13 | 357 | 0.0 | 3.2 | 0.00 | 0.00 | 0.00 | 73 | 1019.7 |
| 20260508203003 | 13 | 357 | 1.6 | 6.4 | 0.00 | 0.00 | 0.00 | 73 | 1019.6 |
| 20260508202502 | 13 | 357 | 3.2 | 8.0 | 0.00 | 0.00 | 0.00 | 72 | 1019.6 |
| 20260508202005 | 13 | 356 | 3.2 | 8.0 | 0.00 | 0.00 | 0.00 | 72 | 1019.7 |
| 20260508201502 | 13 | 330 | 1.6 | 4.8 | 0.00 | 0.00 | 0.00 | 72 | 1019.7 |
| 20260508201014 | 13 | 356 | 0.0 | 3.2 | 0.00 | 0.00 | 0.00 | 71 | 1019.6 |
| 20260508200503 | 13 | 356 | 1.6 | 6.4 | 0.00 | 0.00 | 0.00 | 71 | 1019.6 |
| 20260508200001 | 13 | 9 | 3.2 | 6.4 | 0.00 | 0.00 | 0.00 | 71 | 1019.6 |
| 20260508195505 | 13 | 0 | 3.2 | 6.4 | 0.00 | 0.00 | 0.00 | 71 | 1019.6 |
| 20260508195003 | 13 | 349 | 3.2 | 6.4 | 0.00 | 0.00 | 0.00 | 71 | 1019.5 |
| 20260508194501 | 13 | 1 | 1.6 | 6.4 | 0.00 | 0.00 | 0.00 | 71 | 1019.5 |
| 20260508194011 | 13 | 27 | 0.0 | 4.8 | 0.00 | 0.00 | 0.00 | 71 | 1019.5 |
| 20260508193530 | 13 | 8 | 1.6 | 3.2 | 0.00 | 0.00 | 0.00 | 71 | 1019.5 |
| 20260508192459 | 13 | 12 | 0.0 | 3.2 | 0.00 | 0.00 | 0.00 | 70 | 1019.4 |
| 20260508192000 | 13 | 49 | 1.6 | 4.8 | 0.00 | 0.00 | 0.00 | 69 | 1019.3 |
| 20260508191504 | 14 | 48 | 3.2 | 8.0 | 0.00 | 0.00 | 0.00 | 69 | 1019.2 |
| 20260508191003 | 14 | 335 | 3.2 | 8.0 | 0.00 | 0.00 | 0.00 | 68 | 1019.3 |
| 20260508190501 | 14 | 16 | 1.6 | 4.8 | 0.00 | 0.00 | 0.00 | 69 | 1019.2 |
| 20260508190037 | 14 | 12 | 3.2 | 4.8 | 0.00 | 0.00 | 0.00 | 68 | 1019.1 |
| 20260508184952 | 15 | 335 | 3.2 | 4.8 | 0.00 | 0.00 | 0.00 | 67 | 1019.0 |
| 20260508184452 | 15 | 335 | 3.2 | 6.4 | 0.00 | 0.00 | 0.00 | 67 | 1019.0 |
| 20260508183953 | 15 | 354 | 3.2 | 8.0 | 0.00 | 0.00 | 0.00 | 66 | 1019.0 |
| 20260508183450 | 15 | 341 | 4.8 | 9.7 | 0.00 | 0.00 | 0.00 | 66 | 1018.9 |
| 20260508182952 | 15 | 330 | 6.4 | 11.3 | 0.00 | 0.00 | 0.00 | 66 | 1018.8 |
| 20260508182455 | 15 | 357 | 6.4 | 11.3 | 0.00 | 0.00 | 0.00 | 67 | 1018.8 |
| 20260508181950 | 15 | 12 | 4.8 | 11.3 | 0.00 | 0.00 | 0.00 | 66 | 1018.7 |
| 20260508181449 | 15 | 352 | 4.8 | 8.0 | 0.00 | 0.00 | 0.00 | 67 | 1018.8 |
| 20260508180949 | 15 | 330 | 6.4 | 8.0 | 0.00 | 0.00 | 0.00 | 67 | 1018.7 |
| 20260508180448 | 15 | 330 | 6.4 | 8.0 | 0.00 | 0.00 | 0.00 | 67 | 1018.8 |
| 20260508175945 | 15 | 358 | 6.4 | 12.9 | 0.00 | 0.00 | 0.00 | 66 | 1018.7 |
| 20260508175445 | 15 | 6 | 6.4 | 12.9 | 0.00 | 0.00 | 0.00 | 65 | 1018.7 |
| 20260508174944 | 15 | 335 | 6.4 | 11.3 | 0.00 | 0.00 | 0.00 | 66 | 1018.7 |
| 20260508174445 | 15 | 354 | 6.4 | 14.5 | 0.00 | 0.00 | 0.00 | 66 | 1018.6 |
| 20260508174027 | 16 | 347 | 8.0 | 16.1 | 0.00 | 0.00 | 0.00 | 65 | 1018.6 |
| 20260508172942 | 16 | 354 | 8.0 | 17.7 | 0.00 | 0.00 | 0.00 | 64 | 1018.6 |
| 20260508172443 | 16 | 345 | 8.0 | 14.5 | 0.00 | 0.00 | 0.00 | 64 | 1018.5 |
| 20260508171942 | 16 | 345 | 9.7 | 17.7 | 0.00 | 0.00 | 0.00 | 64 | 1018.4 |
| 20260508171442 | 16 | 302 | 9.7 | 17.7 | 0.00 | 0.00 | 0.00 | 63 | 1018.4 |
| 20260508171025 | 16 | 330 | 8.0 | 14.5 | 0.00 | 0.00 | 0.00 | 63 | 1018.4 |
| 20260508165942 | 16 | 357 | 8.0 | 14.5 | 0.00 | 0.00 | 0.00 | 64 | 1018.3 |
| 20260508165439 | 16 | 308 | 8.0 | 16.1 | 0.00 | 0.00 | 0.00 | 61 | 1018.2 |
| 20260508165004 | 16 | 351 | 8.0 | 16.1 | 0.00 | 0.00 | 0.00 | 61 | 1018.1 |
| 20260508163938 | 16 | 330 | 6.4 | 14.5 | 0.00 | 0.00 | 0.00 | 61 | 1018.0 |
| 20260508163439 | 17 | 347 | 6.4 | 16.1 | 0.00 | 0.00 | 0.00 | 62 | 1018.1 |
| 20260508162937 | 17 | 353 | 4.8 | 16.1 | 0.00 | 0.00 | 0.00 | 62 | 1018.0 |
| 20260508162435 | 17 | 352 | 6.4 | 14.5 | 0.00 | 0.00 | 0.00 | 63 | 1018.0 |
| 20260508161936 | 17 | 6 | 8.0 | 16.1 | 0.00 | 0.00 | 0.00 | 62 | 1018.0 |
| 20260508161509 | 17 | 8 | 9.7 | 19.3 | 0.00 | 0.00 | 0.00 | 61 | 1018.0 |
| 20260508160433 | 17 | 44 | 8.0 | 16.1 | 0.00 | 0.00 | 0.00 | 61 | 1018.0 |
| 20260508155933 | 17 | 49 | 8.0 | 16.1 | 0.00 | 0.00 | 0.00 | 62 | 1018.0 |
| 20260508155436 | 17 | 60 | 9.7 | 17.7 | 0.00 | 0.00 | 0.00 | 60 | 1018.0 |
| 20260508154933 | 17 | 3 | 8.0 | 17.7 | 0.00 | 0.00 | 0.00 | 60 | 1018.0 |
| 20260508154436 | 17 | 2 | 4.8 | 14.5 | 0.00 | 0.00 | 0.00 | 63 | 1018.1 |
| 20260508153935 | 17 | 357 | 4.8 | 9.7 | 0.00 | 0.00 | 0.00 | 55 | 1018.1 |
| 20260508153433 | 17 | 52 | 6.4 | 12.9 | 0.00 | 0.00 | 0.00 | 56 | 1018.2 |
| 20260508152934 | 17 | 68 | 6.4 | 12.9 | 0.00 | 0.00 | 0.00 | 56 | 1018.1 |
| 20260508152433 | 17 | 48 | 4.8 | 11.3 | 0.00 | 0.00 | 0.00 | 55 | 1018.3 |
| 20260508151934 | 17 | 108 | 3.2 | 6.4 | 0.00 | 0.00 | 0.00 | 54 | 1018.3 |
| 20260508151433 | 17 | 41 | 3.2 | 6.4 | 0.00 | 0.00 | 0.00 | 60 | 1018.2 |
| 20260508150934 | 17 | 4 | 4.8 | 8.0 | 0.00 | 0.00 | 0.00 | 57 | 1018.2 |
| 20260508150536 | 17 | 19 | 4.8 | 11.3 | 0.00 | 0.00 | 0.00 | 58 | 1018.3 |
| 20260508144930 | 16 | 31 | 3.2 | 12.9 | 0.00 | 0.00 | 0.00 | 54 | 1018.3 |
| 20260508144430 | 16 | 89 | 4.8 | 12.9 | 0.00 | 0.00 | 0.00 | 56 | 1018.3 |
| 20260508143931 | 16 | 87 | 4.8 | 11.3 | 0.00 | 0.00 | 0.00 | 55 | 1018.4 |
| 20260508143441 | 16 | 46 | 4.8 | 11.3 | 0.00 | 0.00 | 0.00 | 60 | 1018.5 |
| 20260508142930 | 16 | 60 | 3.2 | 11.3 | 0.00 | 0.00 | 0.00 | 58 | 1018.4 |
| 20260508142429 | 16 | 127 | 3.2 | 8.0 | 0.00 | 0.00 | 0.00 | 58 | 1018.4 |
| 20260508142050 | 16 | 128 | 6.4 | 16.1 | 0.00 | 0.00 | 0.00 | 56 | 1018.5 |
| 20260508141729 | 16 | 41 | 6.4 | 16.1 | 0.00 | 0.00 | 0.00 | 60 | 1018.4 |
| 20260508135430 | 16 | 96 | 4.8 | 11.3 | 0.00 | 0.00 | 0.00 | 62 | 1018.4 |
| 20260508134940 | 16 | 100 | 6.4 | 14.5 | 0.00 | 0.00 | 0.00 | 61 | 1018.5 |
| 20260508134431 | 16 | 79 | 6.4 | 14.5 | 0.00 | 0.00 | 0.00 | 63 | 1018.5 |
| 20260508133946 | 16 | 81 | 4.8 | 12.9 | 0.00 | 0.00 | 0.00 | 64 | 1018.4 |
| 20260508133551 | 17 | 62 | 6.4 | 16.1 | 0.00 | 0.00 | 0.00 | 63 | 1018.6 |
| 20260508132432 | 18 | 106 | 6.4 | 12.9 | 0.00 | 0.00 | 0.00 | 63 | 1018.6 |
| 20260508132009 | 18 | 67 | 4.8 | 12.9 | 0.00 | 0.00 | 0.00 | 59 | 1018.6 |
| 20260508131619 | 18 | 71 | 3.2 | 12.9 | 0.00 | 0.00 | 0.00 | 63 | 1018.6 |
| 20260508125936 | 18 | 178 | 4.8 | 16.1 | 0.00 | 0.00 | 0.00 | 57 | 1018.8 |
| 20260508125529 | 18 | 104 | 3.2 | 12.9 | 0.00 | 0.00 | 0.00 | 59 | 1018.8 |
| 20260508124526 | 18 | 52 | 3.2 | 12.9 | 0.00 | 0.00 | 0.00 | 60 | 1018.8 |
| 20260508123426 | 17 | 70 | 6.4 | 12.9 | 0.00 | 0.00 | 0.00 | 66 | 1018.9 |
| 20260508122928 | 17 | 325 | 6.4 | 16.1 | 0.00 | 0.00 | 0.00 | 66 | 1018.9 |
| 20260508122423 | 17 | 5 | 6.4 | 16.1 | 0.00 | 0.00 | 0.00 | 67 | 1018.9 |
| 20260508121922 | 17 | 33 | 3.2 | 12.9 | 0.00 | 0.00 | 0.00 | 63 | 1018.9 |
| 20260508121422 | 17 | 134 | 4.8 | 11.3 | 0.00 | 0.00 | 0.00 | 65 | 1018.9 |
| 20260508120922 | 17 | 120 | 8.0 | 17.7 | 0.00 | 0.00 | 0.00 | 66 | 1019.0 |
| 20260508120432 | 17 | 144 | 6.4 | 17.7 | 0.00 | 0.00 | 0.00 | 68 | 1019.0 |
| 20260508115934 | 17 | 58 | 3.2 | 9.7 | 0.00 | 0.00 | 0.00 | 68 | 1018.9 |
| 20260508115503 | 17 | 136 | 6.4 | 16.1 | 0.00 | 0.00 | 0.00 | 63 | 1019.1 |
| 20260508114424 | 17 | 125 | 3.2 | 6.4 | 0.00 | 0.00 | 0.00 | 67 | 1019.0 |
| 20260508113959 | 16 | 101 | 4.8 | 12.9 | 0.00 | 0.00 | 0.00 | 68 | 1019.0 |
| 20260508112930 | 16 | 65 | 6.4 | 14.5 | 0.00 | 0.00 | 0.00 | 73 | 1019.0 |
| 20260508112501 | 16 | 71 | 6.4 | 14.5 | 0.00 | 0.00 | 0.00 | 72 | 1019.1 |
| 20260508111502 | 16 | 358 | 6.4 | 14.5 | 0.00 | 0.00 | 0.00 | 74 | 1019.1 |
| 20260508110427 | 16 | 66 | 6.4 | 16.1 | 0.00 | 0.00 | 0.00 | 75 | 1019.2 |
| 20260508105925 | 16 | 351 | 6.4 | 16.1 | 0.00 | 0.00 | 0.00 | 72 | 1019.2 |
| 20260508105419 | 16 | 179 | 4.8 | 12.9 | 0.00 | 0.00 | 0.00 | 73 | 1019.2 |
| 20260508104922 | 16 | 70 | 4.8 | 12.9 | 0.00 | 0.00 | 0.00 | 75 | 1019.1 |
| 20260508104414 | 15 | 19 | 6.4 | 12.9 | 0.00 | 0.00 | 0.00 | 75 | 1019.2 |
| 20260508103917 | 15 | 10 | 6.4 | 12.9 | 0.00 | 0.00 | 0.00 | 75 | 1019.3 |
| 20260508103415 | 15 | 45 | 4.8 | 12.9 | 0.00 | 0.00 | 0.00 | 75 | 1019.3 |
| 20260508102921 | 15 | 75 | 4.8 | 12.9 | 0.00 | 0.00 | 0.00 | 76 | 1019.2 |
| 20260508102416 | 15 | 117 | 3.2 | 8.0 | 0.00 | 0.00 | 0.00 | 77 | 1019.3 |
| 20260508101918 | 14 | 106 | 4.8 | 16.1 | 0.00 | 0.00 | 0.00 | 77 | 1019.2 |
| 20260508101502 | 14 | 100 | 8.0 | 16.1 | 0.00 | 0.00 | 0.00 | 78 | 1019.3 |
| 20260508100413 | 14 | 9 | 6.4 | 14.5 | 0.00 | 0.00 | 0.00 | 79 | 1019.3 |
| 20260508095914 | 14 | 33 | 8.0 | 14.5 | 0.00 | 0.00 | 0.00 | 79 | 1019.3 |
| 20260508095414 | 14 | 83 | 9.7 | 14.5 | 0.00 | 0.00 | 0.00 | 79 | 1019.3 |
| 20260508094914 | 14 | 35 | 6.4 | 14.5 | 0.00 | 0.00 | 0.00 | 80 | 1019.3 |
| 20260508094415 | 14 | 64 | 6.4 | 14.5 | 0.00 | 0.00 | 0.00 | 82 | 1019.3 |
| 20260508093913 | 13 | 43 | 8.0 | 14.5 | 0.00 | 0.00 | 0.00 | 81 | 1019.2 |
| 20260508093412 | 13 | 60 | 9.7 | 14.5 | 0.00 | 0.00 | 0.00 | 81 | 1019.2 |
| 20260508092912 | 13 | 63 | 9.7 | 14.5 | 0.00 | 0.00 | 0.00 | 82 | 1019.2 |
| 20260508092409 | 13 | 74 | 9.7 | 14.5 | 0.00 | 0.00 | 0.00 | 82 | 1019.2 |
| 20260508091910 | 13 | 35 | 8.0 | 14.5 | 0.00 | 0.00 | 0.00 | 82 | 1019.3 |
| 20260508091407 | 13 | 78 | 6.4 | 11.3 | 0.00 | 0.00 | 0.00 | 82 | 1019.2 |
| 20260508090906 | 13 | 70 | 6.4 | 11.3 | 0.00 | 0.00 | 0.00 | 82 | 1019.2 |
| 20260508090407 | 13 | 25 | 8.0 | 16.1 | 0.00 | 0.00 | 0.00 | 83 | 1019.2 |
| 20260508085904 | 13 | 60 | 8.0 | 16.1 | 0.00 | 0.00 | 0.00 | 83 | 1019.2 |
| 20260508085404 | 13 | 49 | 8.0 | 12.9 | 0.00 | 0.00 | 0.00 | 84 | 1019.3 |
| 20260508084904 | 13 | 70 | 6.4 | 12.9 | 0.00 | 0.00 | 0.00 | 84 | 1019.2 |
| 20260508084405 | 13 | 50 | 6.4 | 12.9 | 0.00 | 0.00 | 0.00 | 85 | 1019.2 |
| 20260508083906 | 13 | 40 | 8.0 | 12.9 | 0.00 | 0.00 | 0.00 | 85 | 1019.2 |
| 20260508083404 | 12 | 23 | 8.0 | 14.5 | 0.00 | 0.00 | 0.00 | 84 | 1019.2 |
| 20260508082904 | 12 | 62 | 8.0 | 14.5 | 0.00 | 0.00 | 0.00 | 85 | 1019.1 |
| 20260508082408 | 12 | 71 | 8.0 | 12.9 | 0.00 | 0.00 | 0.00 | 85 | 1019.1 |
| 20260508081902 | 12 | 30 | 6.4 | 12.9 | 0.00 | 0.00 | 0.00 | 85 | 1019.1 |
| 20260508081400 | 12 | 70 | 4.8 | 11.3 | 0.00 | 0.00 | 0.00 | 86 | 1019.1 |
| 20260508080903 | 12 | 68 | 6.4 | 11.3 | 0.00 | 0.00 | 0.00 | 86 | 1019.1 |
| 20260508080404 | 12 | 33 | 4.8 | 11.3 | 0.00 | 0.00 | 0.00 | 86 | 1019.0 |
| 20260508075902 | 12 | 81 | 6.4 | 12.9 | 0.00 | 0.00 | 0.00 | 86 | 1019.1 |
| 20260508075401 | 12 | 74 | 8.0 | 12.9 | 0.00 | 0.00 | 0.00 | 86 | 1019.1 |
| 20260508074901 | 12 | 75 | 6.4 | 11.3 | 0.00 | 0.00 | 0.00 | 86 | 1019.0 |
| 20260508074403 | 11 | 56 | 6.4 | 14.5 | 0.00 | 0.00 | 0.00 | 86 | 1019.1 |
| 20260508073901 | 11 | 51 | 6.4 | 14.5 | 0.00 | 0.00 | 0.00 | 86 | 1018.9 |
| 20260508073358 | 11 | 77 | 6.4 | 14.5 | 0.00 | 0.00 | 0.00 | 86 | 1019.1 |
| 20260508072959 | 11 | 58 | 8.0 | 14.5 | 0.00 | 0.00 | 0.00 | 86 | 1019.0 |
| 20260508071934 | 11 | 78 | 8.0 | 12.9 | 0.00 | 0.00 | 0.00 | 87 | 1018.9 |
| 20260508070944 | 11 | 70 | 8.0 | 11.3 | 0.00 | 0.00 | 0.00 | 87 | 1019.0 |
| 20260508065902 | 11 | 44 | 8.0 | 12.9 | 0.00 | 0.00 | 0.00 | 87 | 1018.9 |
| 20260508065356 | 11 | 65 | 8.0 | 12.9 | 0.00 | 0.00 | 0.00 | 88 | 1018.9 |
| 20260508064854 | 11 | 68 | 9.7 | 12.9 | 0.00 | 0.00 | 0.00 | 88 | 1018.8 |
| 20260508064357 | 11 | 72 | 8.0 | 12.9 | 0.00 | 0.00 | 0.00 | 88 | 1018.7 |
| 20260508063901 | 10 | 71 | 6.4 | 12.9 | 0.00 | 0.00 | 0.00 | 89 | 1018.7 |
| 20260508063403 | 10 | 75 | 8.0 | 12.9 | 0.00 | 0.00 | 0.00 | 89 | 1018.7 |
| 20260508062853 | 10 | 60 | 9.7 | 12.9 | 0.00 | 0.00 | 0.00 | 89 | 1018.7 |
| 20260508062407 | 10 | 54 | 9.7 | 14.5 | 0.00 | 0.00 | 0.00 | 89 | 1018.6 |
| 20260508061902 | 10 | 71 | 9.7 | 14.5 | 0.00 | 0.00 | 0.00 | 89 | 1018.6 |
| 20260508061356 | 10 | 77 | 8.0 | 12.9 | 0.00 | 0.00 | 0.00 | 90 | 1018.6 |
| 20260508060856 | 10 | 94 | 8.0 | 12.9 | 0.00 | 0.00 | 0.00 | 90 | 1018.6 |
| 20260508060432 | 10 | 54 | 8.0 | 12.9 | 0.00 | 0.00 | 0.00 | 90 | 1018.6 |
| 20260508060027 | 10 | 31 | 6.4 | 12.9 | 0.00 | 0.00 | 0.00 | 90 | 1018.6 |